Jackson, WY

2:49 AM MDT on May 27, 2017 (GMT -0600)
Jackson Hole

Weather History for KJAC - January, 2014

Change the Weather History Date:

Tuesday, January 14, 2014

  Actual Average Record
Temperature  
Mean Temperature 26 °F -  
Max Temperature 35 °F 26 °F 40 °F (1973)
Min Temperature 17 °F 6 °F -28 °F (1964)
Degree Days  
Heating Degree Days 39    
Moisture  
Dew Point 19 °F    
Average Humidity 67    
Maximum Humidity 93    
Minimum Humidity 48    
Precipitation  
Precipitation 0.00 in - - ()
Sea Level Pressure  
Sea Level Pressure 30.39 in    
Wind  
Wind Speed 9 mph (WSW)    
Max Wind Speed 20 mph    
Max Gust Speed 32 mph    
Visibility 10 miles    
Events      
Averages and records for this station are not official NWS values.
T = Trace of Precipitation, MM = Missing Value Source: NWS Daily Summary

Daily Weather History Graph

Daily Weather History Graph

Search for Another Location

Airport or City:

Trip Planner

Search our weather history database for the weather conditions in past years. The results will help you decide how hot, cold, wet, or windy it might be!

Date:

Astronomy

Jan. 14, 2014 Rise Set
Actual Time 7:53 AM MST 5:10 PM MST
Civil Twilight 7:21 AM MST 5:42 PM MST
Nautical Twilight 6:46 AM MST 6:18 PM MST
Astronomical Twilight 6:11 AM MST 6:52 PM MST
Moon 4:20 PM MST (1/14) 6:29 AM MST (1/14)
Length of Visible Light 10h 20m
Length of Day
9h 17m
Waxing Gibbous, 98% of the Moon is Illuminated
Jan 14
Waxing Gibbous
Jan 15
Full
Jan 23
Last Quarter
Jan 30
New
Feb 6
First Quarter

Hourly Weather History & Observations

Time (MST) Temp. Windchill Dew Point Humidity Pressure Visibility Wind Dir Wind Speed Gust Speed Precip Events Conditions
12:15 AM 33.8 °F 25.3 °F 17.6 °F 52% 30.26 in 10.0 mi West 11.5 mph 16.1 mph N/A   Overcast
12:35 AM 33.8 °F 23.2 °F 19.4 °F 56% 30.25 in 9.0 mi West 17.3 mph 32.2 mph N/A   Overcast
12:55 AM 33.8 °F 29.6 °F 19.4 °F 56% 30.27 in 10.0 mi South 4.6 mph 17.3 mph N/A   Overcast
1:15 AM 33.8 °F 29.6 °F 19.4 °F 56% 30.27 in 10.0 mi WNW 4.6 mph - N/A   Overcast
1:35 AM 33.8 °F 25.3 °F 17.6 °F 52% 30.28 in 10.0 mi West 11.5 mph 16.1 mph N/A   Overcast
1:55 AM 33.8 °F 23.9 °F 19.4 °F 56% 30.28 in 10.0 mi West 15.0 mph 24.2 mph N/A   Overcast
2:15 AM 33.8 °F 26.4 °F 19.4 °F 56% 30.30 in 10.0 mi SW 9.2 mph - N/A   Overcast
2:35 AM 32.0 °F 23.6 °F 19.4 °F 60% 30.31 in 10.0 mi SSW 10.4 mph 23.0 mph N/A   Overcast
2:55 AM 32.0 °F 24.8 °F 19.4 °F 60% 30.32 in 10.0 mi SW 8.1 mph 18.4 mph N/A   Overcast
3:15 AM 32.0 °F 22.5 °F 21.2 °F 64% 30.32 in 10.0 mi WSW 12.7 mph 31.1 mph N/A   Overcast
3:35 AM 32.0 °F 28.7 °F 19.4 °F 60% 30.33 in 10.0 mi South 3.5 mph - N/A   Overcast
3:55 AM 32.0 °F 24.8 °F 19.4 °F 60% 30.35 in 9.0 mi ESE 8.1 mph - N/A   Overcast
4:15 AM 32.0 °F 24.2 °F 19.4 °F 60% 30.35 in 10.0 mi South 9.2 mph - N/A   Overcast
4:35 AM 32.0 °F 24.8 °F 21.2 °F 64% 30.35 in 10.0 mi South 8.1 mph - N/A   Overcast
4:55 AM 30.2 °F 23.4 °F 21.2 °F 69% 30.35 in 10.0 mi SW 6.9 mph - N/A   Overcast
5:15 AM 30.2 °F 23.4 °F 21.2 °F 69% 30.36 in 10.0 mi SSW 6.9 mph - N/A   Overcast
5:35 AM 30.2 °F 23.4 °F 23.0 °F 75% 30.36 in 9.0 mi SSW 6.9 mph - N/A   Overcast
5:55 AM 30.2 °F 22.6 °F 23.0 °F 75% 30.38 in 10.0 mi SSE 8.1 mph - N/A   Overcast
6:15 AM 30.2 °F 22.6 °F 23.0 °F 75% 30.38 in 10.0 mi SE 8.1 mph - N/A   Overcast
6:35 AM 30.2 °F 26.7 °F 23.0 °F 75% 30.40 in 10.0 mi South 3.5 mph - N/A   Overcast
6:51 AM 30.2 °F 26.7 °F 23.0 °F 75% 30.39 in 10.0 mi SE 3.5 mph - N/A   Overcast
7:51 AM 32.0 °F 24.2 °F 21.2 °F 64% 30.41 in 10.0 mi South 9.2 mph - N/A   Mostly Cloudy
8:51 AM 32.0 °F 23.6 °F 19.4 °F 60% 30.42 in 10.0 mi SW 10.4 mph - N/A   Mostly Cloudy
9:55 AM 33.8 °F 26.4 °F 19.4 °F 56% 30.45 in 10.0 mi WSW 9.2 mph 19.6 mph N/A   Scattered Clouds
10:56 AM 35.6 °F 28.0 °F 19.4 °F 52% 30.48 in 10.0 mi West 10.4 mph - N/A   Scattered Clouds
11:51 AM 35.6 °F 26.2 °F 19.4 °F 52% 30.46 in 10.0 mi West 15.0 mph 25.3 mph N/A   Scattered Clouds
12:53 PM 35.6 °F 27.1 °F 17.6 °F 48% 30.45 in 10.0 mi West 12.7 mph 25.3 mph N/A   Partly Cloudy
1:52 PM 35.6 °F 24.8 °F 17.6 °F 48% 30.42 in 10.0 mi West 19.6 mph 27.6 mph N/A   Clear
2:51 PM 35.6 °F 25.9 °F 17.6 °F 48% 30.42 in 10.0 mi WSW 16.1 mph 23.0 mph N/A   Partly Cloudy
3:51 PM 35.6 °F 25.5 °F 17.6 °F 48% 30.43 in 10.0 mi West 17.3 mph 23.0 mph N/A   Clear
4:51 PM 33.8 °F 28.6 °F 17.6 °F 52% 30.46 in 10.0 mi NW 5.8 mph - N/A   Partly Cloudy
5:51 PM 28.4 °F 23.3 °F 19.4 °F 69% 30.47 in 10.0 mi North 4.6 mph - N/A   Clear
6:51 PM 26.6 °F - 19.4 °F 74% 30.46 in 10.0 mi Calm Calm - N/A   Clear
7:56 PM 24.8 °F - 19.4 °F 80% 30.45 in 10.0 mi Calm Calm - N/A   Scattered Clouds
8:55 PM 21.2 °F 12.6 °F 17.6 °F 86% 30.47 in 10.0 mi North 6.9 mph - N/A   Clear
9:15 PM 21.2 °F 13.6 °F 17.6 °F 86% 30.47 in 10.0 mi North 5.8 mph - N/A   Clear
9:35 PM 19.4 °F 11.5 °F 17.6 °F 93% 30.47 in 10.0 mi North 5.8 mph - N/A   Clear
9:55 PM 19.4 °F 7.9 °F 17.6 °F 93% 30.47 in 10.0 mi North 10.4 mph - N/A   Clear
10:15 PM 19.4 °F 7.9 °F 15.8 °F 86% 30.47 in 10.0 mi North 10.4 mph - N/A   Clear
10:35 PM 19.4 °F 7.9 °F 15.8 °F 86% 30.47 in 10.0 mi North 10.4 mph - N/A   Clear
10:55 PM 17.6 °F 10.7 °F 14.0 °F 86% 30.46 in 10.0 mi ENE 4.6 mph - N/A   Clear
11:15 PM 19.4 °F 11.5 °F 15.8 °F 86% 30.47 in 10.0 mi NNE 5.8 mph - N/A   Clear
11:35 PM 23.0 °F 18.4 °F 19.4 °F 86% 30.47 in 10.0 mi North 3.5 mph - N/A   Clear
11:55 PM 21.2 °F 14.9 °F 17.6 °F 86% 30.46 in 10.0 mi NW 4.6 mph - N/A   Clear